Regional Weather Roundup
Issued by NWS

Home | Current Version | Previous Version | Text Only | Print | Product List | Glossary On
Versions: 1 2 3 4 5 6 7 8 9 10 11 12 13 14 15 16 17 18 19 20 21 22 23 24 25 26 27 28 29 30 31 32 33 34 35 36 37 38 39 40 41 42 43 44 45 46 47 48 49 50
000
ASUS43 KIND 121859
RWRIN

WEATHER ROUNDUP FOR INDIANA
NATIONAL WEATHER SERVICE INDIANAPOLIS IN
300 PM EDT SAT JUL 12 2014

NOTE: "FAIR" INDICATES FEW OR NO CLOUDS BELOW 12,000 FEET WITH NO
SIGNIFICANT WEATHER AND/OR OBSTRUCTIONS TO VISIBILITY.

* - STATION DOES NOT REPORT WEATHER SUCH AS PRECIPITATION OR FOG.

+ - STATION NOT QUALITY CONTROLLED BY THE NATIONAL WEATHER SERVICE.
    USE DATA WITH CAUTION...ESPECIALLY DEWPOINT AND RELATIVE
    HUMIDITY OBSERVATIONS.

INZ001>003-010>013-019-020-122000-
NORTHWEST INDIANA

CITY           SKY/WX    TMP DP  RH WIND       PRES   REMARKS
GARY /AIRPORT/ PTSUNNY   79  72  78 S9        30.02F
RENSSELAER +   CLOUDY    73  72  94 S8        30.04F
VALPARAISO     CLOUDY    73  70  90 S9        30.03F

$$

LMZ046-743>745-122000-
SOUTHERN LAKE MICHIGAN

STATION/POSITION TIME  TEMP WIND        PRES
                       AIR  DIR/SP/G
                 (UTC) (F)  (DEG/KT/KT) (MB)
BURNS HARBOR     1800   72  190/ 16/ 20 1016.6F
MICHIGAN CITY    1800   71  160/ 16/ 22   N/A

$$

INZ004-005-014>016-021>024-122000-
NORTH CENTRAL INDIANA

CITY           SKY/WX    TMP DP  RH WIND       PRES   REMARKS
ELKHART        LGT RAIN  73  70  88 S7        30.04F
GOSHEN         LGT RAIN  74  70  87 S10       30.05F
SOUTH BEND     CLOUDY    73  69  87 S10       30.03F

$$

INZ006>009-017-018-025>027-122000-
NORTHEAST INDIANA

CITY           SKY/WX    TMP DP  RH WIND       PRES   REMARKS
ANGOLA *+      SUNNY     81  70  69 S7        30.07F
FORT WAYNE     CLOUDY    78  67  68 SW14      30.08F

$$

INZ028-029-035-036-043>045-051>053-122000-
WEST CENTRAL INDIANA

CITY           SKY/WX    TMP DP  RH WIND       PRES   REMARKS
GREENCASTLE +  CLOUDY    70  70 100 S3        30.14S FOG
LAFAYETTE      CLOUDY    74  70  87 SW10      30.06F
TERRE HAUTE    CLOUDY    76  71  85 S10       30.12F

$$

INZ030>032-037>040-046>048-054>057-064-065-122000-
CENTRAL INDIANA

CITY           SKY/WX    TMP DP  RH WIND       PRES   REMARKS
ANDERSON       SUNNY     75  64  69 S12       30.14F
COLUMBUS       PTSUNNY   77  70  78 SW5       30.16F
INDIANAPOLIS   LGT RAIN  73  70  90 S9        30.12F
-EAGLE CREEK   CLOUDY    72  69  90 S6        30.11F
KOKOMO *+      CLOUDY    72  66  83 SW14      30.07F
MT COMFORT *+  CLOUDY    73  73 100 S12       30.12F
SHELBYVILLE    CLOUDY    79  70  74 SW5       30.14F

$$

INZ033-034-041-042-049-050-058-059-122000-
EAST CENTRAL INDIANA

CITY           SKY/WX    TMP DP  RH WIND       PRES   REMARKS
MUNCIE         CLOUDY    79  66  64 SW10G21   30.11F

$$

INZ060-061-067>069-081>083-085>088-122000-
SOUTHWEST INDIANA

CITY           SKY/WX    TMP DP  RH WIND       PRES   REMARKS
EVANSVILLE     CLOUDY    77  72  84 SW9       30.16S
HUNTINGBURG *+ CLOUDY    79  70  73 W5        30.16F

$$

INZ062-063-066-070>080-084-089>092-122000-
SOUTH CENTRAL AND SOUTHEAST INDIANA

CITY           SKY/WX    TMP DP  RH WIND       PRES   REMARKS
BLOOMINGTON    CLOUDY    75  70  84 SE9       30.14F

$$



USA.gov is the U.S. government's official web portal to all federal, state and local government web resources and services.